Regional Weather Roundup
Issued by NWS New Orleans/Baton Rouge, LA

Home | Current Version | Previous Version | Graphics & Text | Print | Product List | Glossary On
Versions: 1 2 3 4 5 6 7 8 9 10 11 12 13 14 15 16 17 18 19 20 21 22 23 24 25 26 27 28 29 30 31 32 33 34 35 36 37 38 39 40 41 42 43 44 45 46 47 48 49 50
226
ASUS44 KLIX 311012
RWRLIX
NEW ORLEANS REGIONAL WEATHER ROUNDUP
NATIONAL WEATHER SERVICE NEW ORLEANS LA
500 AM CDT TUE MAR 31 2015

NOTE: "FAIR" INDICATES FEW OR NO CLOUDS BELOW 12,000 FEET WITH NO
      SIGNIFICANT WEATHER AND/OR OBSTRUCTIONS TO VISIBILITY.
      SKY/WX - SKY CONDITION AND SIGNIFICANT WEATHER.
      TMP - AIR TEMPERATURE.     DP    - DEWPOINT TEMPERATURE.
      RH  - RELATIVE HUMIDITY.   PRES  - PRESSURE.
      HI  - HEAT INDEX.          WCI   - WIND CHILL INDEX.

*  THESE STATIONS ARE NOT NWS OR FAA STATIONS AND ARE NOT UNDER
   NWS QUALITY CONTROL.

LAZ038-040-048-061>063-065>067-069-311100-
SOUTHEAST LOUISIANA

CITY           SKY/WX    TMP DP  RH WIND       PRES   REMARKS
N.O. AUDUBON   NOT AVBL
N.O. INTL ARPT CLEAR     63  60  90 CALM      30.10S
N.O. LAKEFRONT CLEAR     68  63  84 SW6       30.10F
SLIDELL        PTCLDY    60  59  96 CALM      30.09F
BATON ROUGE    CLEAR     60  59  96 CALM      30.08F
BOOTHVILLE     CLEAR     68  66  93 S6        30.11F
BELLE CHASSE   FOG       58  57  97 CALM      30.10S VSB 1/4
BOGALUSA*        N/A     60  57  89 CALM      30.10F
GALLIANO*      CLOUDY    54  54  99 S3        30.10F FOG
NEW ROADS*       N/A     61  60  96 S3        30.08S
GONZALES*        N/A     59  59 100 CALM      30.09S FOG
HAMMOND*       CLEAR     59  57  94 CALM      30.11S FOG
HOUMA*         FOG       58  58 100 CALM      30.10S VSB<1/4
PORT FOURCHON* PTSUNNY   70  66  88 S6        30.13F

$$

MSZ070-080>082-311100-
SOUTHERN MISSISSIPPI

CITY           SKY/WX    TMP DP  RH WIND       PRES   REMARKS
MCCOMB         FOG       57  57 100 CALM      30.08S VSB 3/4
GULFPORT       CLEAR     64  62  93 W3        30.09S
BILOXI         CLEAR     66  63  91 W6        30.09S
PASCAGOULA     CLEAR     64  63  96 CALM      30.09F

$$

COASTAL OBSERVATIONS
LAKE AND NEARSHORE STATIONS

STATION/POSITION TIME  TEMP    WIND        PRES    WAVE
                       AIR SEA DIR/SP/G            HT/PER
                 (UTC) (F)     (DEG/KT/KT) (MB)    (FT/S)
PASCAGOULA       0900   68     250/  7/ 10 1018.8
WAVELAND YACHT   0900   66 68  260/  4/  5 1019.0
GRAND ISLE       0900   68 70  200/  3/  4 1019.2
SOUTHWEST PASS   0900   66 54  190/  4/  4 1020.1
NEW CANAL        0900   66     210/  3/  5 1019.7
SHELL BEACH      0900   67 70  240/  2/  3 1019.4

OFFSHORE STATIONS

STATION/POSITION TIME  TEMP    WIND        PRES    WAVE
                       AIR SEA DIR/SP/G            HT/PER
                 (UTC) (F)     (DEG/KT/KT) (MB)    (FT/S)
64 S DAUPHIN ISL 0950   70 71  250/  8/  8 1019.9    3/ 7

$$




USA.gov is the U.S. government's official web portal to all federal, state and local government web resources and services.